Weather History for Bluefield, WV

Change the Weather History Date:

Tuesday, February 18, 2014

  Actual Average Record
Temperature  
Mean Temperature 45 °F 38 °F  
Max Temperature 53 °F 46 °F 64 °F (1984)
Min Temperature 36 °F 30 °F 4 °F (1973)
Degree Days  
Heating Degree Days 20 27  
Month to date heating degree days 564 515  
Since 1 July heating degree days 3383 3235  
Cooling Degree Days 0 0  
Month to date cooling degree days 0 0  
Year to date cooling degree days 0 0  
Moisture  
Dew Point 19 °F    
Average Humidity 47    
Maximum Humidity 76    
Minimum Humidity 17    
Precipitation  
Precipitation 0.01 in 0.10 in 0.72 in (1979)
Month to date precipitation 2.11 1.74  
Year to date precipitation 3.68 4.64  
Snow  
Snow 0.00 in - - ()
Month to date snowfall 16.7  
Since 1 July snowfall 36.9  
Snow Depth 9.00 in    
Sea Level Pressure  
Sea Level Pressure 30.08 in    
Wind  
Wind Speed 11 mph (WSW)    
Max Wind Speed 28 mph    
Max Gust Speed 37 mph    
Visibility 10 miles    
Events      
T = Trace of Precipitation, MM = Missing Value Source: NWS Daily Summary

Daily Weather History Graph

Daily Weather History Graph

Search for Another Location

Airport:

Trip Planner

Search our weather history database for the weather conditions in past years. The results will help you decide how hot, cold, wet, or windy it might be!

Date:

Astronomy

Feb. 18, 2014 Rise Set
Actual Time 7:10 AM EST 6:07 PM EST
Civil Twilight 6:43 AM EST 6:34 PM EST
Nautical Twilight 6:13 AM EST 7:04 PM EST
Astronomical Twilight 5:43 AM EST 7:34 PM EST
Moon 9:53 PM EST (2/18) 8:47 AM EST (2/18)
Length of Visible Light 11h 50m
Length of Day
10h 57m
Waning Gibbous, 87% of the Moon is Illuminated
Feb 18
Waning Gibbous
Feb 22
Last Quarter
Mar 1
New
Mar 8
First Quarter
Mar 16
Full

Hourly Weather History & Observations

Time (EST) Temp. Windchill Dew Point Humidity Pressure Visibility Wind Dir Wind Speed Gust Speed Precip Events Conditions
12:52 AM 41.0 °F 35.2 °F 32.0 °F 70% 29.99 in 10.0 mi SSW 9.2 mph - N/A   Overcast
1:52 AM 43.0 °F 35.7 °F 35.1 °F 74% 30.00 in 10.0 mi West 15.0 mph 24.2 mph N/A   Overcast
2:52 AM 42.1 °F 34.5 °F 26.1 °F 53% 30.02 in 10.0 mi West 15.0 mph 20.7 mph 0.01 in   Mostly Cloudy
3:52 AM 39.9 °F 32.5 °F 23.0 °F 51% 30.04 in 10.0 mi West 12.7 mph 26.5 mph N/A   Clear
4:52 AM 39.0 °F 31.0 °F 23.0 °F 53% 30.07 in 10.0 mi West 13.8 mph 21.9 mph N/A   Clear
5:52 AM 37.0 °F 27.7 °F 24.1 °F 59% 30.12 in 10.0 mi West 16.1 mph 24.2 mph N/A   Clear
6:52 AM 36.0 °F 26.7 °F 24.1 °F 62% 30.14 in 10.0 mi West 15.0 mph - N/A   Clear
7:52 AM 37.0 °F 28.1 °F 23.0 °F 57% 30.15 in 10.0 mi West 15.0 mph 25.3 mph N/A   Clear
8:52 AM 39.9 °F 32.5 °F 21.0 °F 47% 30.17 in 10.0 mi West 12.7 mph 24.2 mph N/A   Clear
9:52 AM 43.0 °F 34.8 °F 19.0 °F 38% 30.17 in 10.0 mi WNW 18.4 mph 36.8 mph N/A   Clear
10:52 AM 45.0 °F 37.9 °F 18.0 °F 34% 30.17 in 10.0 mi WNW 16.1 mph 28.8 mph N/A   Clear
11:52 AM 46.9 °F - 18.0 °F 32% 30.16 in 10.0 mi WNW 13.8 mph 26.5 mph N/A   Clear
12:52 PM 50.0 °F - 16.0 °F 26% 30.12 in 10.0 mi West 8.1 mph - N/A   Clear
1:52 PM 51.1 °F - 14.0 °F 23% 30.12 in 10.0 mi West 15.0 mph 19.6 mph N/A   Clear
2:52 PM 52.0 °F - 16.0 °F 24% 30.09 in 10.0 mi SW 6.9 mph - N/A   Clear
3:52 PM 52.0 °F - 19.0 °F 27% 30.10 in 10.0 mi Variable 5.8 mph - N/A   Clear
4:52 PM 51.1 °F - 17.1 °F 26% 30.08 in 10.0 mi WSW 6.9 mph - N/A   Clear
5:52 PM 50.0 °F - 16.0 °F 26% 30.07 in 10.0 mi South 3.5 mph - N/A   Clear
6:52 PM 50.0 °F - 16.0 °F 26% 30.07 in 10.0 mi SSW 4.6 mph - N/A   Clear
7:52 PM 51.1 °F - 9.0 °F 18% 30.04 in 10.0 mi SSW 3.5 mph - N/A   Clear
8:52 PM 52.0 °F - 9.0 °F 18% 30.01 in 10.0 mi South 9.2 mph - N/A   Clear
9:52 PM 51.1 °F - 15.1 °F 24% 29.99 in 10.0 mi South 10.4 mph 16.1 mph N/A   Clear
10:52 PM 48.9 °F - 17.1 °F 28% 30.01 in 10.0 mi West 4.6 mph - N/A   Clear
11:52 PM 52.0 °F - 17.1 °F 25% 29.98 in 10.0 mi SSW 5.8 mph - N/A   Partly Cloudy